N311TY KCRQ-KSNA

Flight info

Callsign N311TY
Flight time 0h 30m
Altitude 8000
Route PEBLE SLI
Aircraft C408/M-SDFGRY/S

Departure

Time 2026-05-08 02:51
Airport McClellan-Palomar Airport (KCRQ)

Arrival

Time 2026-05-08 03:21
Airport John Wayne Orange County International Airport (KSNA)
Time Latitude Longitude Altitude Speed Heading
2026-05-08 02:39 33.12752 -117.27708 323 ft 0 kts 45°
2026-05-08 02:48 33.12760 -117.27692 322 ft 5 kts 65°
2026-05-08 02:48 33.12796 -117.27659 321 ft 8 kts 51°
2026-05-08 02:49 33.12813 -117.27578 320 ft 8 kts 78°
2026-05-08 02:49 33.12827 -117.27488 320 ft 13 kts 80°
2026-05-08 02:49 33.12845 -117.27376 321 ft 15 kts 79°
2026-05-08 02:49 33.12859 -117.27301 321 ft 7 kts 59°
2026-05-08 02:50 33.12864 -117.27292 321 ft 0 kts 48°
2026-05-08 02:50 33.12901 -117.27243 319 ft 9 kts 48°
2026-05-08 02:50 33.12949 -117.27250 321 ft 8 kts 271°
2026-05-08 02:50 33.12931 -117.27366 322 ft 30 kts 260°
2026-05-08 02:51 33.12843 -117.27903 321 ft 98 kts 259°
2026-05-08 02:51 33.12722 -117.28787 655 ft 109 kts 269°
2026-05-08 02:51 33.13097 -117.29520 1136 ft 108 kts 305°
2026-05-08 02:51 33.13206 -117.30389 1636 ft 107 kts 277°
2026-05-08 02:52 33.13325 -117.31266 2141 ft 107 kts 275°
2026-05-08 02:52 33.13411 -117.32147 2651 ft 106 kts 277°
2026-05-08 02:52 33.13495 -117.33023 3166 ft 106 kts 279°
2026-05-08 02:52 33.13576 -117.33880 3724 ft 102 kts 280°
2026-05-08 02:53 33.13655 -117.34718 4243 ft 101 kts 280°
2026-05-08 02:53 33.13732 -117.35534 4784 ft 98 kts 281°
2026-05-08 02:53 33.13810 -117.36344 5262 ft 99 kts 280°
2026-05-08 02:53 33.13888 -117.37166 5738 ft 100 kts 280°
2026-05-08 02:54 33.13967 -117.37998 6213 ft 102 kts 280°
2026-05-08 02:54 33.14047 -117.38848 6673 ft 104 kts 280°
2026-05-08 02:54 33.14128 -117.39719 7107 ft 107 kts 281°
2026-05-08 02:54 33.14213 -117.40613 7547 ft 110 kts 281°
2026-05-08 02:55 33.14300 -117.41531 7976 ft 115 kts 281°
2026-05-08 02:55 33.14545 -117.43998 8036 ft 178 kts 279°
2026-05-08 02:55 33.14686 -117.45528 8028 ft 192 kts 279°
2026-05-08 02:56 33.14835 -117.47139 8017 ft 198 kts 279°
2026-05-08 02:56 33.14988 -117.48785 8011 ft 200 kts 278°
2026-05-08 02:56 33.15139 -117.50422 8008 ft 197 kts 278°
2026-05-08 02:56 33.15291 -117.52043 8010 ft 197 kts 279°
2026-05-08 02:57 33.15442 -117.53663 8012 ft 196 kts 278°
2026-05-08 02:57 33.15593 -117.55279 8012 ft 196 kts 279°
2026-05-08 02:57 33.15743 -117.56895 8012 ft 196 kts 278°
2026-05-08 02:57 33.15893 -117.58511 8003 ft 196 kts 278°
2026-05-08 02:58 33.16042 -117.60128 8013 ft 196 kts 279°
2026-05-08 02:58 33.16192 -117.61744 8013 ft 196 kts 278°
2026-05-08 02:58 33.16342 -117.63362 8013 ft 196 kts 278°
2026-05-08 02:58 33.16491 -117.64979 8013 ft 196 kts 279°
2026-05-08 02:59 33.16640 -117.66595 8012 ft 196 kts 278°
2026-05-08 02:59 33.16788 -117.68214 8012 ft 196 kts 278°
2026-05-08 02:59 33.16937 -117.69832 8012 ft 196 kts 278°
2026-05-08 02:59 33.17085 -117.71448 8015 ft 196 kts 278°
2026-05-08 03:00 33.17233 -117.73064 8015 ft 196 kts 279°
2026-05-08 03:00 33.17382 -117.74684 8016 ft 196 kts 278°
2026-05-08 03:00 33.17529 -117.76300 8014 ft 196 kts 279°
2026-05-08 03:00 33.17677 -117.77920 8008 ft 196 kts 278°
2026-05-08 03:01 33.17824 -117.79538 8014 ft 196 kts 278°
2026-05-08 03:01 33.17999 -117.81145 8010 ft 194 kts 285°
2026-05-08 03:01 33.18545 -117.82604 7999 ft 192 kts 305°
2026-05-08 03:01 33.19451 -117.83761 7996 ft 191 kts 323°
2026-05-08 03:02 33.20617 -117.84496 7997 ft 190 kts 341°
2026-05-08 03:02 33.21878 -117.84943 8008 ft 189 kts 343°
2026-05-08 03:02 33.23140 -117.85400 8010 ft 190 kts 343°
2026-05-08 03:02 33.24386 -117.85852 8008 ft 190 kts 343°
2026-05-08 03:03 33.25651 -117.86310 8002 ft 190 kts 343°
2026-05-08 03:03 33.26918 -117.86768 8002 ft 191 kts 343°
2026-05-08 03:03 33.28194 -117.87229 8012 ft 192 kts 343°
2026-05-08 03:03 33.29475 -117.87692 8013 ft 192 kts 343°
2026-05-08 03:04 33.30756 -117.88156 8010 ft 193 kts 343°
2026-05-08 03:04 33.32039 -117.88620 8011 ft 193 kts 343°
2026-05-08 03:04 33.33321 -117.89085 8007 ft 193 kts 343°
2026-05-08 03:04 33.34603 -117.89549 8007 ft 193 kts 343°
2026-05-08 03:05 33.35887 -117.90014 8009 ft 193 kts 343°
2026-05-08 03:05 33.37170 -117.90479 8010 ft 193 kts 343°
2026-05-08 03:05 33.38452 -117.90944 8009 ft 193 kts 343°
2026-05-08 03:05 33.39734 -117.91409 8010 ft 193 kts 343°
2026-05-08 03:06 33.41018 -117.91875 8011 ft 193 kts 343°
2026-05-08 03:06 33.42300 -117.92339 8010 ft 192 kts 342°
2026-05-08 03:06 33.43579 -117.92804 8011 ft 192 kts 342°
2026-05-08 03:06 33.44854 -117.93267 8011 ft 192 kts 342°
2026-05-08 03:07 33.46129 -117.93731 8013 ft 192 kts 342°
2026-05-08 03:07 33.47404 -117.94194 8013 ft 191 kts 342°
2026-05-08 03:07 33.48678 -117.94657 8013 ft 191 kts 342°
2026-05-08 03:07 33.49954 -117.95121 8014 ft 191 kts 342°
2026-05-08 03:08 33.51230 -117.95585 8012 ft 192 kts 342°
2026-05-08 03:08 33.52504 -117.96049 8006 ft 191 kts 342°
2026-05-08 03:08 33.53779 -117.96513 8012 ft 191 kts 342°
2026-05-08 03:08 33.55043 -117.96973 7909 ft 189 kts 342°
2026-05-08 03:09 33.56307 -117.97434 7651 ft 190 kts 341°
2026-05-08 03:09 33.57575 -117.97895 7481 ft 190 kts 341°
2026-05-08 03:09 33.58835 -117.98353 7393 ft 189 kts 341°
2026-05-08 03:09 33.60093 -117.98812 7291 ft 189 kts 341°
2026-05-08 03:10 33.61347 -117.99269 7191 ft 188 kts 341°
2026-05-08 03:10 33.62599 -117.99725 7092 ft 188 kts 341°
2026-05-08 03:10 33.63849 -118.00181 6986 ft 188 kts 340°
2026-05-08 03:10 33.65102 -118.00638 6888 ft 188 kts 340°
2026-05-08 03:11 33.66377 -118.00974 6749 ft 192 kts 357°
2026-05-08 03:11 33.67649 -118.00516 6605 ft 196 kts 19°
2026-05-08 03:11 33.68888 -117.99815 6485 ft 197 kts 21°
2026-05-08 03:11 33.70117 -117.99096 6360 ft 197 kts 21°
2026-05-08 03:12 33.71340 -117.98357 6229 ft 197 kts 24°
2026-05-08 03:12 33.72518 -117.97502 6090 ft 198 kts 27°
2026-05-08 03:12 33.73683 -117.96621 5970 ft 198 kts 27°
2026-05-08 03:12 33.74846 -117.95738 5842 ft 197 kts 27°
2026-05-08 03:13 33.75996 -117.94858 5524 ft 198 kts 27°
2026-05-08 03:13 33.77157 -117.93966 5272 ft 197 kts 27°
2026-05-08 03:13 33.78306 -117.93073 5048 ft 197 kts 27°
2026-05-08 03:13 33.79438 -117.92190 4776 ft 193 kts 27°
2026-05-08 03:14 33.80568 -117.91306 4293 ft 194 kts 28°
2026-05-08 03:14 33.81702 -117.90444 3868 ft 191 kts 28°
2026-05-08 03:14 33.82827 -117.89609 3465 ft 189 kts 27°
2026-05-08 03:14 33.83956 -117.88800 3044 ft 188 kts 27°
2026-05-08 03:15 33.85080 -117.88014 2619 ft 186 kts 31°
2026-05-08 03:15 33.85873 -117.86812 2184 ft 176 kts 74°
2026-05-08 03:15 33.85795 -117.85534 2172 ft 147 kts 109°
2026-05-08 03:15 33.85487 -117.84381 2175 ft 148 kts 109°
2026-05-08 03:16 33.85147 -117.83164 2188 ft 160 kts 112°
2026-05-08 03:16 33.84667 -117.81927 2187 ft 166 kts 117°
2026-05-08 03:16 33.84097 -117.80724 2176 ft 166 kts 135°
2026-05-08 03:16 33.83098 -117.80082 2178 ft 163 kts 161°
2026-05-08 03:17 33.82033 -117.79606 2182 ft 163 kts 161°
2026-05-08 03:17 33.80954 -117.79181 2187 ft 162 kts 167°
2026-05-08 03:17 33.79846 -117.79262 2182 ft 161 kts 195°
2026-05-08 03:17 33.78815 -117.79783 2182 ft 162 kts 205°
2026-05-08 03:18 33.77802 -117.80387 2133 ft 164 kts 207°
2026-05-08 03:18 33.76767 -117.81027 1942 ft 169 kts 208°
2026-05-08 03:18 33.75727 -117.81700 1720 ft 170 kts 207°
2026-05-08 03:18 33.74739 -117.82323 1515 ft 147 kts 208°
2026-05-08 03:19 33.73904 -117.82854 1340 ft 132 kts 206°
2026-05-08 03:19 33.73134 -117.83342 1179 ft 117 kts 207°
2026-05-08 03:19 33.72447 -117.83778 1023 ft 109 kts 207°
2026-05-08 03:19 33.71780 -117.84205 885 ft 106 kts 209°
2026-05-08 03:20 33.71141 -117.84615 745 ft 100 kts 204°
2026-05-08 03:20 33.70538 -117.84979 636 ft 96 kts 206°
2026-05-08 03:20 33.69944 -117.85373 483 ft 97 kts 207°
2026-05-08 03:20 33.69346 -117.85754 357 ft 99 kts 208°
2026-05-08 03:21 33.68728 -117.86143 237 ft 99 kts 207°
2026-05-08 03:21 33.68125 -117.86530 99 ft 97 kts 208°
2026-05-08 03:21 33.67597 -117.86864 54 ft 59 kts 208°
2026-05-08 03:21 33.67431 -117.86976 53 ft 17 kts 217°
2026-05-08 03:22 33.67422 -117.87073 54 ft 13 kts 298°
2026-05-08 03:22 33.67401 -117.87140 53 ft 11 kts 210°
2026-05-08 03:22 33.67314 -117.87196 54 ft 7 kts 208°
2026-05-08 03:22 33.67318 -117.87251 51 ft 10 kts 333°
2026-05-08 03:23 33.67315 -117.87279 53 ft 2 kts 161°
2026-05-08 03:23 33.67309 -117.87272 53 ft 0 kts 116°